EDT,Max TemperatureF,Mean TemperatureF,Min TemperatureF,Max Dew PointF,MeanDew PointF,Min DewpointF,Max Humidity, Mean Humidity, Min Humidity, Max Sea Level PressureIn, Mean Sea Level PressureIn, Min Sea Level PressureIn, Max VisibilityMiles, Mean VisibilityMiles, Min VisibilityMiles, Max Wind SpeedMPH, Mean Wind SpeedMPH, Max Gust SpeedMPH,PrecipitationIn, CloudCover, Events, WindDirDegrees
2013-3-1,51,41,30,28,26,24,78,59,39,29.94,29.89,29.85,10,10,10,10,4,14,0.00,5,,337
2013-3-2,43,38,32,37,31,20,92,73,53,29.94,29.88,29.83,10,10,4,13,6,20,0.07,8,Rain-Snow,7
2013-3-3,46,37,27,20,17,15,63,47,31,30.01,29.95,29.89,10,10,10,16,5,23,0.00,0,,348
2013-3-4,56,42,28,23,15,12,58,38,18,30.15,30.08,30.02,10,10,10,14,6,21,0.00,0,,289
2013-3-5,55,49,42,46,40,25,100,71,41,30.04,29.81,29.64,10,7,0,18,7,22,0.47,7,Fog-Rain-Thunderstorm,255
2013-3-6,49,41,32,28,24,18,76,57,38,30.10,29.90,29.69,10,10,10,22,9,32,0.00,1,,294
2013-3-7,59,43,26,27,25,24,92,60,28,30.24,30.17,30.12,10,10,10,14,5,18,0.00,0,,7
2013-3-8,61,44,27,26,22,19,78,49,20,30.31,30.25,30.18,10,10,9,13,4,16,0.00,0,,41
2013-3-9,63,47,31,32,26,23,69,47,25,30.35,30.27,30.22,10,10,10,9,2,13,0.00,0,,63
2013-3-10,66,53,40,37,34,31,73,51,29,30.28,30.20,30.14,10,10,10,13,4,18,0.00,0,,113
2013-3-11,68,57,45,55,48,36,100,76,52,30.14,29.97,29.81,10,8,2,23,6,30,0.64,6,Rain,154
2013-3-12,67,56,44,57,46,29,100,65,29,29.99,29.83,29.73,10,9,3,14,7,20,0.09,5,Rain,273
2013-3-13,59,46,33,32,24,17,82,52,21,30.17,30.05,29.99,10,10,10,23,9,30,0.00,0,,289
2013-3-14,54,43,31,21,16,10,52,37,21,30.30,30.22,30.16,10,10,10,17,7,25,0.00,0,,318
2013-3-15,71,50,29,40,29,15,69,48,26,30.19,30.06,29.90,10,10,10,18,8,25,0.00,0,,225
2013-3-16,78,67,56,46,42,38,57,43,28,29.89,29.84,29.75,10,10,10,28,15,36,0.00,0,,230
2013-3-17,77,62,47,50,44,39,71,52,33,30.04,29.91,29.85,10,10,10,22,12,26,0.00,1,,228
2013-3-18,47,44,40,43,40,37,100,88,76,30.10,30.00,29.87,10,5,0,17,9,23,0.50,8,Fog-Rain-Thunderstorm,40
2013-3-19,69,55,41,43,34,17,100,67,9,30.04,29.91,29.84,10,6,0,14,4,25,0.00,3,Fog,275
2013-3-20,59,49,39,19,13,7,34,27,19,30.10,29.96,29.81,10,10,10,23,9,29,0.00,3,,300
2013-3-21,50,40,30,30,16,10,70,46,21,29.95,29.85,29.80,10,10,9,15,5,20,0.00,0,,22
2013-3-22,49,38,26,26,18,13,63,46,29,30.08,30.02,29.97,10,10,10,15,5,20,0.00,6,,215
2013-3-23,50,46,41,45,40,28,100,77,53,30.01,29.95,29.88,10,7,2,7,3,9,0.06,7,Rain,102
2013-3-24,45,43,40,45,41,39,100,92,83,29.90,29.68,29.56,10,6,2,22,10,30,1.17,8,Rain-Thunderstorm,44
2013-3-25,48,41,33,40,27,19,100,67,34,29.93,29.71,29.56,10,9,4,25,13,35,0.01,5,Rain,254
2013-3-26,51,39,26,25,22,20,75,55,34,30.19,30.03,29.93,10,10,10,17,9,26,0.00,2,,308
2013-3-27,56,44,32,24,22,18,64,44,24,30.27,30.21,30.15,10,10,10,15,6,23,0.00,0,,357
2013-3-28,61,45,29,26,21,16,66,43,19,30.31,30.24,30.17,10,10,10,13,5,17,0.00,0,,351
2013-3-29,63,46,29,40,27,19,72,48,23,30.34,30.27,30.20,10,10,10,16,4,25,T,4,Rain,263
2013-3-30,67,56,44,46,40,35,92,63,34,30.20,30.13,30.02,10,10,10,12,4,18,0.02,4,Rain,124
2013-3-31,71,61,50,56,51,48,100,77,53,30.04,29.91,29.83,10,7,2,24,9,30,0.49,7,Rain,221